Starlink 32316

operational
NORAD ID: 61860 Int'l Des: 2024-202 Owner: SPXS Country: US Constellation: starlink
LEOCIRCULAR

Über Starlink 32316

Beschreibung wird geladen...

Live-Position

3D-Globus wird geladen...

Nächste Überflüge

Höhenverlauf

Altitude vs Time

uPlot chart will show altitude changes over time

Zweizeiliger Elementsatz

1 61860U 24202R 25353.28838154 -.00002390 00000-0 -77315-4 0 9991
2 61860 42.9997 328.3914 0001041 257.0067 103.0668 15.27597607 63075
Epoch: 19. Dez. 2025 • Age: 12 hours

Aktueller Status

Höhe 490.3 km
Geschwindigkeit 7.62 km/s
Subsatellitenpunkt -29.34°S, 89.12°W
Startdatum 7. Nov. 2024
Alter 1.1 years
Typ internet

Technische Details

Klassifizierung Payload
Masse 730.00 kg
Trockenmasse 700.00 kg
Gesamtmasse 730.00 kg
Länge 0.30 m
Durchmesser 4.10 m
Spannweite 29.00 m
Form Box + pan
Hersteller SPXS
Bus-Typ Starlink V2M
Phasenstatus In Orbit
Besitzer/Staat SPXS/US

Große Konstellationen

Loading constellations...